Time,TemperatureF,DewpointF,PressureIn,WindDirection,WindDirectionDegrees,WindSpeedMPH,WindSpeedGustMPH,Humidity,HourlyPrecipIn,Conditions,Clouds,dailyrainin,SolarRadiationWatts/m^2,SoftwareType,DateUTC
2013-02-26 00:00:00,30.0,21.0,-100.00,ENE,67,3.0,-999.0,68,-99.99,,,-99.99,0.000000,,2013-02-26 05:00:00,
2013-02-26 00:43:00,30.0,21.0,-100.00,ENE,67,3.0,-999.0,68,-99.99,,,-99.99,0.000000,,2013-02-26 05:43:00,
2013-02-26 00:52:00,30.0,21.0,-100.00,ENE,67,3.0,-999.0,68,-99.99,,,-99.99,0.000000,,2013-02-26 05:52:00,
2013-02-26 01:00:00,30.0,22.0,-100.00,ENE,67,5.0,-999.0,71,-99.99,,,-99.99,0.000000,,2013-02-26 06:00:00,
2013-02-26 01:32:00,30.0,22.0,-100.00,ENE,67,5.0,-999.0,71,-99.99,,,-99.99,0.000000,,2013-02-26 06:32:00,
2013-02-26 01:42:00,30.0,22.0,-100.00,ENE,67,5.0,-999.0,71,-99.99,,,-99.99,0.000000,,2013-02-26 06:42:00,
2013-02-26 01:52:00,30.0,22.0,-100.00,ENE,67,5.0,-999.0,71,-99.99,,,-99.99,0.000000,,2013-02-26 06:52:00,
2013-02-26 02:00:00,29.0,22.0,-100.00,ENE,67,6.0,-999.0,73,-99.99,,,-99.99,0.000000,,2013-02-26 07:00:00,
2013-02-26 02:42:00,29.0,22.0,-100.00,ENE,67,6.0,-999.0,73,-99.99,,,-99.99,0.000000,,2013-02-26 07:42:00,
2013-02-26 02:52:00,29.0,22.0,-100.00,ENE,67,6.0,-999.0,73,-99.99,,,-99.99,0.000000,,2013-02-26 07:52:00,
2013-02-26 03:00:00,29.0,21.0,-100.00,East,90,6.0,-999.0,72,-99.99,,,-99.99,0.000000,,2013-02-26 08:00:00,
2013-02-26 03:42:00,29.0,21.0,-100.00,East,90,6.0,-999.0,72,-99.99,,,-99.99,0.000000,,2013-02-26 08:42:00,
2013-02-26 03:52:00,29.0,21.0,-100.00,East,90,6.0,-999.0,72,-99.99,,,-99.99,0.000000,,2013-02-26 08:52:00,
2013-02-26 04:00:00,30.0,20.0,-100.00,East,90,7.0,-999.0,67,-99.99,,,-99.99,0.000000,,2013-02-26 09:00:00,
2013-02-26 04:43:00,30.0,20.0,-100.00,East,90,7.0,-999.0,67,-99.99,,,-99.99,0.000000,,2013-02-26 09:43:00,
2013-02-26 04:52:00,30.0,20.0,-100.00,East,90,7.0,-999.0,67,-99.99,,,-99.99,0.000000,,2013-02-26 09:52:00,
2013-02-26 05:00:00,30.0,20.0,-100.00,ENE,67,8.0,-999.0,65,-99.99,,,-99.99,0.000000,,2013-02-26 10:00:00,
2013-02-26 05:42:00,30.0,20.0,-100.00,ENE,67,8.0,-999.0,65,-99.99,,,-99.99,0.000000,,2013-02-26 10:42:00,
2013-02-26 05:52:00,30.0,20.0,-100.00,ENE,67,8.0,-999.0,65,-99.99,,,-99.99,0.000000,,2013-02-26 10:52:00,
2013-02-26 06:00:00,30.0,20.0,-100.00,ENE,67,8.0,-999.0,66,-99.99,,,-99.99,0.000000,,2013-02-26 11:00:00,
2013-02-26 06:42:00,30.0,20.0,-100.00,ENE,67,8.0,-999.0,66,-99.99,,,-99.99,0.000000,,2013-02-26 11:42:00,
2013-02-26 06:52:00,30.0,20.0,-100.00,ENE,67,8.0,-999.0,66,-99.99,,,-99.99,0.000000,,2013-02-26 11:52:00,
2013-02-26 07:00:00,30.0,20.0,-100.00,East,90,8.0,-999.0,67,-99.99,,,-99.99,0.000000,,2013-02-26 12:00:00,
2013-02-26 07:42:00,30.0,20.0,-100.00,East,90,8.0,-999.0,67,-99.99,,,-99.99,0.000000,,2013-02-26 12:42:00,
2013-02-26 07:53:00,30.0,20.0,-100.00,East,90,8.0,-999.0,67,-99.99,,,-99.99,0.000000,,2013-02-26 12:53:00,
2013-02-26 08:00:00,30.0,21.0,-100.00,East,90,10.0,-999.0,66,-99.99,,,-99.99,3.480000,,2013-02-26 13:00:00,
2013-02-26 08:42:00,30.0,21.0,-100.00,East,90,10.0,-999.0,66,-99.99,,,-99.99,3.480000,,2013-02-26 13:42:00,
2013-02-26 08:52:00,30.0,21.0,-100.00,East,90,10.0,-999.0,66,-99.99,,,-99.99,3.480000,,2013-02-26 13:52:00,
2013-02-26 09:00:00,32.0,21.0,-100.00,East,90,11.0,-999.0,64,-99.99,,,-99.99,20.879999,,2013-02-26 14:00:00,
2013-02-26 09:42:00,32.0,21.0,-100.00,East,90,11.0,-999.0,64,-99.99,,,-99.99,20.879999,,2013-02-26 14:42:00,
2013-02-26 09:52:00,32.0,21.0,-100.00,East,90,11.0,-999.0,64,-99.99,,,-99.99,20.879999,,2013-02-26 14:52:00,
2013-02-26 10:00:00,33.0,21.0,-100.00,East,90,10.0,-999.0,61,-99.99,,,-99.99,98.599998,,2013-02-26 15:00:00,
2013-02-26 10:42:00,33.0,21.0,-100.00,East,90,10.0,-999.0,61,-99.99,,,-99.99,98.599998,,2013-02-26 15:42:00,
2013-02-26 10:52:00,33.0,21.0,-100.00,East,90,10.0,-999.0,61,-99.99,,,-99.99,98.599998,,2013-02-26 15:52:00,
2013-02-26 11:00:00,35.0,22.0,-100.00,East,90,12.0,-999.0,57,-99.99,,,-99.99,209.960007,,2013-02-26 16:00:00,
2013-02-26 11:42:00,35.0,22.0,-100.00,East,90,12.0,-999.0,57,-99.99,,,-99.99,209.960007,,2013-02-26 16:42:00,
2013-02-26 11:52:00,35.0,22.0,-100.00,East,90,12.0,-999.0,57,-99.99,,,-99.99,209.960007,,2013-02-26 16:52:00,
2013-02-26 12:00:00,36.0,22.0,-100.00,East,90,13.0,-999.0,56,-99.99,,,-99.99,114.839996,,2013-02-26 17:00:00,
2013-02-26 12:42:00,36.0,22.0,-100.00,East,90,13.0,-999.0,56,-99.99,,,-99.99,114.839996,,2013-02-26 17:42:00,
2013-02-26 12:52:00,36.0,22.0,-100.00,East,90,13.0,-999.0,56,-99.99,,,-99.99,114.839996,,2013-02-26 17:52:00,
2013-02-26 13:00:00,35.0,26.0,-100.00,East,90,12.0,-999.0,69,0.03,,,-99.99,81.199997,,2013-02-26 18:00:00,
2013-02-26 13:42:00,35.0,26.0,-100.00,East,90,12.0,-999.0,69,0.03,,,-99.99,81.199997,,2013-02-26 18:42:00,
2013-02-26 13:52:00,35.0,26.0,-100.00,East,90,12.0,-999.0,69,0.03,,,-99.99,81.199997,,2013-02-26 18:52:00,
2013-02-26 14:00:00,33.0,28.0,-100.00,East,90,12.0,-999.0,80,0.05,,,-99.99,69.599998,,2013-02-26 19:00:00,
2013-02-26 14:42:00,33.0,28.0,-100.00,East,90,12.0,-999.0,80,0.05,,,-99.99,69.599998,,2013-02-26 19:42:00,
2013-02-26 14:52:00,33.0,28.0,-100.00,East,90,12.0,-999.0,80,0.05,,,-99.99,69.599998,,2013-02-26 19:52:00,
2013-02-26 17:00:00,32.0,31.0,-100.00,ENE,67,8.0,-999.0,95,0.01,,,-99.99,47.560001,,2013-02-26 22:00:00,
2013-02-26 17:42:00,32.0,31.0,-100.00,ENE,67,8.0,-999.0,95,0.01,,,-99.99,47.560001,,2013-02-26 22:42:00,
2013-02-26 17:52:00,32.0,31.0,-100.00,ENE,67,8.0,-999.0,95,0.01,,,-99.99,47.560001,,2013-02-26 22:52:00,
2013-02-26 18:00:00,32.0,31.0,-100.00,ENE,67,7.0,-999.0,95,0.01,,,-99.99,16.240000,,2013-02-26 23:00:00,
2013-02-26 18:42:00,32.0,31.0,-100.00,ENE,67,7.0,-999.0,95,0.01,,,-99.99,16.240000,,2013-02-26 23:42:00,
2013-02-26 18:52:00,32.0,31.0,-100.00,ENE,67,7.0,-999.0,95,0.01,,,-99.99,16.240000,,2013-02-26 23:52:00,
2013-02-26 19:00:00,32.0,31.0,-100.00,ENE,67,7.0,-999.0,96,-99.99,,,-99.99,2.320000,,2013-02-27 00:00:00,
2013-02-26 19:42:00,32.0,31.0,-100.00,ENE,67,7.0,-999.0,96,-99.99,,,-99.99,2.320000,,2013-02-27 00:42:00,
2013-02-26 19:52:00,32.0,31.0,-100.00,ENE,67,7.0,-999.0,96,-99.99,,,-99.99,2.320000,,2013-02-27 00:52:00,
2013-02-26 20:00:00,32.0,31.0,-100.00,ENE,67,7.0,-999.0,96,-99.99,,,-99.99,0.000000,,2013-02-27 01:00:00,
2013-02-26 20:42:00,32.0,31.0,-100.00,ENE,67,7.0,-999.0,96,-99.99,,,-99.99,0.000000,,2013-02-27 01:42:00,
2013-02-26 20:52:00,32.0,31.0,-100.00,ENE,67,7.0,-999.0,96,-99.99,,,-99.99,0.000000,,2013-02-27 01:52:00,
2013-02-26 21:00:00,32.0,31.0,-100.00,ENE,67,6.0,-999.0,96,-99.99,,,-99.99,0.000000,,2013-02-27 02:00:00,
2013-02-26 21:42:00,32.0,31.0,-100.00,ENE,67,6.0,-999.0,96,-99.99,,,-99.99,0.000000,,2013-02-27 02:42:00,
2013-02-26 21:52:00,32.0,31.0,-100.00,ENE,67,6.0,-999.0,96,-99.99,,,-99.99,0.000000,,2013-02-27 02:52:00,
2013-02-26 22:00:00,32.0,31.0,-100.00,ENE,67,6.0,-999.0,96,-99.99,,,-99.99,0.000000,,2013-02-27 03:00:00,
2013-02-26 22:42:00,32.0,31.0,-100.00,ENE,67,6.0,-999.0,96,-99.99,,,-99.99,0.000000,,2013-02-27 03:42:00,
2013-02-26 22:52:00,32.0,31.0,-100.00,ENE,67,6.0,-999.0,96,-99.99,,,-99.99,0.000000,,2013-02-27 03:52:00,
2013-02-26 23:00:00,32.0,31.0,-100.00,ENE,67,5.0,-999.0,96,-99.99,,,-99.99,0.000000,,2013-02-27 04:00:00,
2013-02-26 23:42:00,32.0,31.0,-100.00,ENE,67,5.0,-999.0,96,-99.99,,,-99.99,0.000000,,2013-02-27 04:42:00,
2013-02-26 23:52:00,32.0,31.0,-100.00,ENE,67,5.0,-999.0,96,-99.99,,,-99.99,0.000000,,2013-02-27 04:52:00,